Time,TemperatureF,DewpointF,PressureIn,WindDirection,WindDirectionDegrees,WindSpeedMPH,WindSpeedGustMPH,Humidity,HourlyPrecipIn,Conditions,Clouds,dailyrainin,SoftwareType,DateUTC
2013-10-20 00:08:00,39.5,36.0,29.90,WSW,242,0.0,6.0,87,0.00,,,0.04,weatherlink.com 1.10,2013-10-20 05:08:00,
2013-10-20 00:23:00,39.4,36.0,29.90,WSW,242,4.0,5.0,87,0.00,,,0.04,weatherlink.com 1.10,2013-10-20 05:23:00,
2013-10-20 00:38:00,39.3,36.0,29.90,WSW,242,0.0,0.0,87,0.00,,,0.04,weatherlink.com 1.10,2013-10-20 05:38:00,
2013-10-20 00:53:00,39.0,36.0,29.89,WSW,242,0.0,0.0,87,0.00,,,0.04,weatherlink.com 1.10,2013-10-20 05:53:00,
2013-10-20 01:08:00,38.8,36.0,29.90,WSW,242,0.0,4.0,88,0.00,,,0.04,weatherlink.com 1.10,2013-10-20 06:08:00,
2013-10-20 01:23:00,38.5,35.0,29.90,WSW,242,0.0,6.0,88,0.00,,,0.04,weatherlink.com 1.10,2013-10-20 06:23:00,
2013-10-20 01:38:00,37.5,35.0,29.90,South,170,4.0,7.0,89,0.00,,,0.00,weatherlink.com 1.10,2013-10-20 06:38:00,
2013-10-20 01:53:00,37.2,35.0,29.90,South,170,4.0,6.0,90,0.00,,,0.00,weatherlink.com 1.10,2013-10-20 06:53:00,
2013-10-20 02:08:00,37.0,34.0,29.90,South,171,0.0,4.0,90,0.00,,,0.00,weatherlink.com 1.10,2013-10-20 07:08:00,
2013-10-20 02:23:00,37.0,34.0,29.90,South,171,4.0,6.0,90,0.00,,,0.00,weatherlink.com 1.10,2013-10-20 07:23:00,
2013-10-20 02:38:00,36.8,34.0,29.90,South,170,6.0,7.0,89,0.00,,,0.00,weatherlink.com 1.10,2013-10-20 07:38:00,
2013-10-20 02:53:00,36.4,34.0,29.90,South,170,0.0,4.0,90,0.00,,,0.00,weatherlink.com 1.10,2013-10-20 07:53:00,
2013-10-20 03:08:00,36.1,34.0,29.90,South,169,5.0,7.0,90,0.00,,,0.00,weatherlink.com 1.10,2013-10-20 08:08:00,
2013-10-20 03:23:00,35.8,33.0,29.90,South,172,5.0,7.0,90,0.00,,,0.00,weatherlink.com 1.10,2013-10-20 08:23:00,
2013-10-20 03:38:00,35.4,33.0,29.90,SSE,163,7.0,8.0,89,0.00,,,0.00,weatherlink.com 1.10,2013-10-20 08:38:00,
2013-10-20 03:53:00,34.8,32.0,29.90,SSE,167,3.0,5.0,90,0.00,,,0.00,weatherlink.com 1.10,2013-10-20 08:53:00,
2013-10-20 04:08:00,34.4,32.0,29.90,SSE,167,5.0,6.0,91,0.00,,,0.00,weatherlink.com 1.10,2013-10-20 09:08:00,
2013-10-20 04:23:00,34.3,32.0,29.89,SSE,167,5.0,6.0,91,0.00,,,0.00,weatherlink.com 1.10,2013-10-20 09:23:00,
2013-10-20 04:38:00,34.2,32.0,29.89,SSE,166,2.0,7.0,91,0.00,,,0.00,weatherlink.com 1.10,2013-10-20 09:38:00,
2013-10-20 04:53:00,33.8,32.0,29.89,SSE,166,2.0,5.0,91,0.00,,,0.00,weatherlink.com 1.10,2013-10-20 09:53:00,
2013-10-20 05:08:00,33.9,32.0,29.90,SSE,166,4.0,5.0,92,0.00,,,0.00,weatherlink.com 1.10,2013-10-20 10:08:00,
2013-10-20 05:24:00,34.1,32.0,29.90,SSE,166,4.0,6.0,92,0.00,,,0.00,weatherlink.com 1.10,2013-10-20 10:24:00,
2013-10-20 05:39:00,33.8,32.0,29.90,SSE,166,2.0,5.0,92,0.00,,,0.00,weatherlink.com 1.10,2013-10-20 10:39:00,
2013-10-20 05:54:00,33.5,32.0,29.90,SSE,166,5.0,6.0,93,0.00,,,0.00,weatherlink.com 1.10,2013-10-20 10:54:00,
2013-10-20 06:09:00,33.3,32.0,29.90,SSE,166,2.0,7.0,93,0.00,,,0.00,weatherlink.com 1.10,2013-10-20 11:09:00,
2013-10-20 06:24:00,33.3,32.0,29.90,SSE,166,2.0,5.0,93,0.00,,,0.00,weatherlink.com 1.10,2013-10-20 11:24:00,
2013-10-20 06:39:00,33.3,32.0,29.89,SSE,166,2.0,5.0,93,0.00,,,0.00,weatherlink.com 1.10,2013-10-20 11:39:00,
2013-10-20 06:54:00,33.7,32.0,29.90,SSE,149,5.0,9.0,94,0.00,,,0.00,weatherlink.com 1.10,2013-10-20 11:54:00,
2013-10-20 07:09:00,34.1,33.0,29.90,SSE,149,2.0,6.0,94,0.00,,,0.00,weatherlink.com 1.10,2013-10-20 12:09:00,
2013-10-20 07:24:00,34.5,33.0,29.91,SSE,148,6.0,9.0,94,0.00,,,0.00,weatherlink.com 1.10,2013-10-20 12:24:00,
2013-10-20 07:39:00,34.8,33.0,29.90,SSE,155,4.0,8.0,94,0.00,,,0.00,weatherlink.com 1.10,2013-10-20 12:39:00,
2013-10-20 07:54:00,34.9,33.0,29.90,SE,142,2.0,9.0,93,0.00,,,0.00,weatherlink.com 1.10,2013-10-20 12:54:00,
2013-10-20 08:09:00,35.0,33.0,29.90,SE,143,1.0,9.0,93,0.00,,,0.00,weatherlink.com 1.10,2013-10-20 13:09:00,
2013-10-20 08:24:00,35.1,33.0,29.89,SE,143,5.0,8.0,92,0.00,,,0.00,weatherlink.com 1.10,2013-10-20 13:24:00,
2013-10-20 08:39:00,35.3,33.0,29.89,SE,141,5.0,9.0,92,0.00,,,0.00,weatherlink.com 1.10,2013-10-20 13:39:00,
2013-10-20 08:54:00,35.4,33.0,29.89,SE,136,7.0,8.0,91,0.00,,,0.00,weatherlink.com 1.10,2013-10-20 13:54:00,
2013-10-20 09:09:00,35.9,33.0,29.88,SE,137,5.0,11.0,89,0.01,,,0.01,weatherlink.com 1.10,2013-10-20 14:09:00,
2013-10-20 09:24:00,36.2,33.0,29.87,SE,142,5.0,8.0,89,0.01,,,0.01,weatherlink.com 1.10,2013-10-20 14:24:00,
2013-10-20 09:39:00,36.6,34.0,29.87,SE,142,2.0,6.0,90,0.01,,,0.01,weatherlink.com 1.10,2013-10-20 14:39:00,
2013-10-20 09:54:00,37.1,35.0,29.87,SE,142,4.0,7.0,90,0.01,,,0.01,weatherlink.com 1.10,2013-10-20 14:54:00,
2013-10-20 10:09:00,37.7,35.0,29.86,SE,142,0.0,5.0,90,0.01,,,0.02,weatherlink.com 1.10,2013-10-20 15:09:00,
2013-10-20 10:24:00,38.0,36.0,29.86,SE,143,4.0,7.0,91,0.01,,,0.02,weatherlink.com 1.10,2013-10-20 15:24:00,
2013-10-20 10:39:00,38.4,36.0,29.86,SE,143,5.0,6.0,91,0.01,,,0.02,weatherlink.com 1.10,2013-10-20 15:39:00,
2013-10-20 10:54:00,39.1,37.0,29.86,SSE,159,5.0,9.0,91,0.01,,,0.02,weatherlink.com 1.10,2013-10-20 15:54:00,
2013-10-20 11:09:00,39.7,37.0,29.85,SSE,161,4.0,9.0,91,0.00,,,0.02,weatherlink.com 1.10,2013-10-20 16:09:00,
2013-10-20 11:24:00,40.2,38.0,29.83,ESE,122,7.0,9.0,91,0.00,,,0.02,weatherlink.com 1.10,2013-10-20 16:24:00,
2013-10-20 11:39:00,40.7,38.0,29.83,ESE,122,4.0,8.0,91,0.02,,,0.04,weatherlink.com 1.10,2013-10-20 16:39:00,
2013-10-20 11:54:00,41.0,38.0,29.83,SE,126,10.0,14.0,90,0.02,,,0.04,weatherlink.com 1.10,2013-10-20 16:54:00,
2013-10-20 12:09:00,41.1,38.0,29.82,ESE,121,6.0,11.0,89,0.02,,,0.04,weatherlink.com 1.10,2013-10-20 17:09:00,
2013-10-20 12:24:00,41.6,39.0,29.81,SE,142,9.0,11.0,89,0.02,,,0.04,weatherlink.com 1.10,2013-10-20 17:24:00,
2013-10-20 12:39:00,42.4,38.0,29.81,ESE,115,9.0,15.0,84,0.00,,,0.04,weatherlink.com 1.10,2013-10-20 17:39:00,
2013-10-20 12:54:00,43.0,38.0,29.80,ESE,107,7.0,11.0,83,0.00,,,0.04,weatherlink.com 1.10,2013-10-20 17:54:00,
2013-10-20 13:09:00,43.4,38.0,29.79,SE,129,7.0,9.0,82,0.00,,,0.04,weatherlink.com 1.10,2013-10-20 18:09:00,
2013-10-20 13:24:00,44.2,38.0,29.77,SE,136,8.0,11.0,80,0.00,,,0.04,weatherlink.com 1.10,2013-10-20 18:24:00,
2013-10-20 13:39:00,44.6,38.0,29.76,SE,139,8.0,18.0,78,0.00,,,0.04,weatherlink.com 1.10,2013-10-20 18:39:00,
2013-10-20 13:55:00,45.0,39.0,29.76,SE,138,10.0,15.0,78,0.00,,,0.04,weatherlink.com 1.10,2013-10-20 18:55:00,
2013-10-20 14:10:00,45.3,38.0,29.76,SE,129,9.0,18.0,76,0.00,,,0.04,weatherlink.com 1.10,2013-10-20 19:10:00,
2013-10-20 14:25:00,45.3,39.0,29.74,SSE,164,13.0,15.0,78,0.00,,,0.04,weatherlink.com 1.10,2013-10-20 19:25:00,
2013-10-20 14:40:00,45.3,39.0,29.75,SSE,150,9.0,15.0,79,0.00,,,0.04,weatherlink.com 1.10,2013-10-20 19:40:00,
2013-10-20 14:55:00,45.7,40.0,29.75,South,173,7.0,11.0,79,0.00,,,0.04,weatherlink.com 1.10,2013-10-20 19:55:00,
2013-10-20 15:10:00,46.3,40.0,29.74,SE,137,7.0,13.0,78,0.00,,,0.04,weatherlink.com 1.10,2013-10-20 20:10:00,
2013-10-20 15:25:00,47.2,40.0,29.75,South,178,7.0,15.0,77,0.00,,,0.04,weatherlink.com 1.10,2013-10-20 20:25:00,
2013-10-20 15:40:00,47.7,41.0,29.75,SSE,160,7.0,15.0,77,0.00,,,0.04,weatherlink.com 1.10,2013-10-20 20:40:00,
2013-10-20 15:55:00,47.9,41.0,29.74,SSE,155,7.0,15.0,77,0.00,,,0.04,weatherlink.com 1.10,2013-10-20 20:55:00,
2013-10-20 16:10:00,48.2,41.0,29.75,SSW,207,9.0,14.0,77,0.00,,,0.04,weatherlink.com 1.10,2013-10-20 21:10:00,
2013-10-20 16:25:00,48.5,42.0,29.76,SSE,157,9.0,13.0,77,0.00,,,0.04,weatherlink.com 1.10,2013-10-20 21:25:00,
2013-10-20 16:40:00,49.3,42.0,29.76,SE,140,10.0,12.0,76,0.00,,,0.04,weatherlink.com 1.10,2013-10-20 21:40:00,
2013-10-20 16:55:00,49.8,42.0,29.76,SSE,157,8.0,10.0,75,0.00,,,0.04,weatherlink.com 1.10,2013-10-20 21:55:00,
2013-10-20 17:10:00,50.3,43.0,29.75,SE,126,7.0,9.0,75,0.00,,,0.04,weatherlink.com 1.10,2013-10-20 22:10:00,
2013-10-20 17:25:00,50.0,43.0,29.75,SE,132,2.0,10.0,76,0.00,,,0.04,weatherlink.com 1.10,2013-10-20 22:25:00,
2013-10-20 17:40:00,50.0,43.0,29.75,SE,136,5.0,9.0,77,0.00,,,0.04,weatherlink.com 1.10,2013-10-20 22:40:00,
2013-10-20 17:55:00,50.3,43.0,29.75,SSE,167,6.0,11.0,76,0.00,,,0.04,weatherlink.com 1.10,2013-10-20 22:55:00,
2013-10-20 18:10:00,50.0,43.0,29.75,SSE,149,8.0,11.0,77,0.00,,,0.04,weatherlink.com 1.10,2013-10-20 23:10:00,
2013-10-20 18:25:00,49.6,43.0,29.75,SSE,151,9.0,11.0,79,0.00,,,0.04,weatherlink.com 1.10,2013-10-20 23:25:00,
2013-10-20 18:40:00,49.5,44.0,29.75,SSE,153,6.0,10.0,81,0.00,,,0.04,weatherlink.com 1.10,2013-10-20 23:40:00,
2013-10-20 18:55:00,49.3,44.0,29.76,SSE,159,6.0,11.0,82,0.00,,,0.04,weatherlink.com 1.10,2013-10-20 23:55:00,
2013-10-20 19:10:00,49.8,44.0,29.77,SSW,210,9.0,16.0,80,0.00,,,0.04,weatherlink.com 1.10,2013-10-21 00:10:00,
2013-10-20 19:25:00,50.5,44.0,29.77,SW,219,21.0,24.0,79,0.00,,,0.04,weatherlink.com 1.10,2013-10-21 00:25:00,
2013-10-20 19:40:00,50.9,44.0,29.78,SSW,197,0.0,12.0,77,0.00,,,0.04,weatherlink.com 1.10,2013-10-21 00:40:00,
2013-10-20 19:55:00,51.2,44.0,29.78,WSW,248,6.0,19.0,76,0.00,,,0.04,weatherlink.com 1.10,2013-10-21 00:55:00,
2013-10-20 20:10:00,50.7,42.0,29.79,SW,225,18.0,27.0,73,0.00,,,0.04,weatherlink.com 1.10,2013-10-21 01:10:00,
2013-10-20 20:25:00,50.0,42.0,29.80,West,259,12.0,25.0,74,0.00,,,0.04,weatherlink.com 1.10,2013-10-21 01:25:00,
2013-10-20 20:40:00,49.0,42.0,29.81,WSW,254,22.0,29.0,77,0.00,,,0.04,weatherlink.com 1.10,2013-10-21 01:40:00,
2013-10-20 20:55:00,48.5,42.0,29.81,West,279,10.0,25.0,79,0.00,,,0.04,weatherlink.com 1.10,2013-10-21 01:55:00,
2013-10-20 21:10:00,47.7,42.0,29.82,SW,230,14.0,26.0,80,0.00,,,0.04,weatherlink.com 1.10,2013-10-21 02:10:00,
2013-10-20 21:25:00,47.0,41.0,29.83,West,277,12.0,29.0,80,0.00,,,0.04,weatherlink.com 1.10,2013-10-21 02:25:00,
2013-10-20 21:40:00,46.6,41.0,29.84,WSW,252,7.0,28.0,80,0.00,,,0.04,weatherlink.com 1.10,2013-10-21 02:40:00,
2013-10-20 21:55:00,46.0,41.0,29.85,West,271,18.0,26.0,81,0.00,,,0.04,weatherlink.com 1.10,2013-10-21 02:55:00,
2013-10-20 22:10:00,44.3,39.0,29.86,WSW,237,8.0,28.0,82,0.00,,,0.04,weatherlink.com 1.10,2013-10-21 03:10:00,
2013-10-20 22:25:00,43.5,38.0,29.87,West,274,15.0,30.0,81,0.00,,,0.04,weatherlink.com 1.10,2013-10-21 03:25:00,
2013-10-20 22:40:00,42.3,36.0,29.88,WSW,252,10.0,25.0,79,0.00,,,0.04,weatherlink.com 1.10,2013-10-21 03:40:00,
2013-10-20 22:55:00,42.1,36.0,29.89,West,272,9.0,19.0,79,0.00,,,0.04,weatherlink.com 1.10,2013-10-21 03:55:00,
2013-10-20 23:10:00,41.8,36.0,29.90,West,276,9.0,21.0,79,0.00,,,0.04,weatherlink.com 1.10,2013-10-21 04:10:00,
2013-10-20 23:25:00,41.4,35.0,29.91,WNW,286,14.0,23.0,79,0.00,,,0.04,weatherlink.com 1.10,2013-10-21 04:25:00,
2013-10-20 23:40:00,41.1,34.0,29.92,WNW,286,12.0,28.0,77,0.00,,,0.04,weatherlink.com 1.10,2013-10-21 04:40:00,
2013-10-20 23:55:00,40.9,35.0,29.92,WSW,244,4.0,23.0,78,0.00,,,0.04,weatherlink.com 1.10,2013-10-21 04:55:00,